哨兵3A(SENTINEL 3A)

导读

SENTINEL-3A(哨兵-3A)是欧洲空间局(ESA)联合欧洲气象卫星开发组织共同管理的卫星,属于欧洲哥白尼计划的地球观测卫星,于2016年2月16日发射升空。它装载雷达测高仪与多类传感器,可高精度观测海面地形、温盐颜色及陆地参数,支撑海洋预报与气候环境监测,还可监测火灾、植被健康、水位变化,观测数据免费开放,设计寿命7.5年,现已在轨稳定运行十余年持续服务全球科研与应用。

Basic Information
目录编号:
41335
目录名称:
SENTINEL 3A
国际标识:
2016-011A
轨道中心:
EARTH
卫星名称:
哨兵3A(SENTINEL 3A)
卫星全名:
哨兵3A(SENTINEL 3A)
卫星状态:
在轨 (已飞行3801 天)
发射日期:
2016-02-16 UTC
国别 :
(ESA)
星等 :
--
Orbit Information
数据来源 国际轨道数据 AOE轨道数据
星历时间 2026-07-14T04:46:55+0800
8小时前
查看轨道信息
2026-07-10T00:00:00+0800
4天前
查看轨道信息
半长轴 7180.788km 7180.789km
偏心率 0.0001367 0.0001437
轨道倾角 98.624° 98.624°
近地点辐角 90.534° 95.815°
升交点赤经 261.865° 257.726°
平近点角 269.599° 308.162°
近地点 801.669km 801.62km
远地点 803.633km 803.684km
周期 100.929分钟 100.929分钟
每日圈数 14.267395 14.26739
Detailed Information
使用方式:
暂无
2D Orbit Map
3D Orbit Map
Orbit Altitude Analysis Chart
Orbit Inclination Analysis Chart
Orbit Comprehensive Analysis Chart
View Comprehensive Chart